TimeAST,TemperatureF,Dew PointF,Humidity,Sea Level PressureIn,VisibilityMPH,Wind Direction,Wind SpeedMPH,Gust SpeedMPH,PrecipitationIn,Events,Conditions,WindDirDegrees,DateUTC
12:00 AM,23.0,15.8,74,29.39,15.0,West,20.7,33.4,N/A,Snow,Low Drifting Snow,280,2013-02-19 04:00:00
1:00 AM,23.0,15.8,74,29.43,15.0,West,19.6,33.4,N/A,Snow,Low Drifting Snow,280,2013-02-19 05:00:00
2:00 AM,22,15,66,29.47,15,West,19.6,,,,Partly Cloudy,280,2013-02-19 06:00:00
2:00 AM,23.0,15.8,74,29.46,15.0,West,21.9,31.1,N/A,Snow,Low Drifting Snow,280,2013-02-19 06:00:00
4:00 AM,23.0,15.8,74,29.54,15.0,West,20.7,33.4,N/A,,Overcast,280,2013-02-19 08:00:00
6:00 AM,21.2,15.8,80,29.63,15.0,West,15.0,26.5,N/A,Snow,Low Drifting Snow,280,2013-02-19 10:00:00
7:00 AM,21.2,14.0,74,29.67,15.0,West,17.3,26.5,N/A,,Partly Cloudy,280,2013-02-19 11:00:00
8:00 AM,21,14,65,29.72,15,West,16.1,,,Snow,Low Drifting Snow,270,2013-02-19 12:00:00
8:00 AM,21.2,14.0,74,29.72,15.0,West,17.3,25.3,N/A,Snow,Low Drifting Snow,270,2013-02-19 12:00:00
9:00 AM,21.2,14.0,74,29.76,15.0,West,15.0,28.8,N/A,Snow,Low Drifting Snow,270,2013-02-19 13:00:00
10:00 AM,23.0,14.0,68,29.80,15.0,West,13.8,28.8,N/A,Snow,Low Drifting Snow,280,2013-02-19 14:00:00
11:00 AM,23.0,15.8,74,29.83,15.0,West,16.1,27.6,N/A,,Partly Cloudy,270,2013-02-19 15:00:00
12:00 PM,24.8,15.8,69,29.85,15.0,West,15.0,25.3,N/A,,Partly Cloudy,280,2013-02-19 16:00:00
1:00 PM,26.6,17.6,69,29.88,15.0,West,16.1,25.3,N/A,,Partly Cloudy,280,2013-02-19 17:00:00
2:00 PM,29,19,56,29.90,15,West,12.7,,,,Scattered Clouds,280,2013-02-19 18:00:00
3:00 PM,30.2,19.4,64,29.92,15.0,West,11.5,19.6,N/A,,Partly Cloudy,280,2013-02-19 19:00:00
4:00 PM,30.2,21.2,69,29.96,15.0,West,11.5,-,N/A,,Partly Cloudy,280,2013-02-19 20:00:00
5:00 PM,30.2,21.2,69,29.96,15.0,WNW,9.2,-,N/A,,Partly Cloudy,290,2013-02-19 21:00:00
6:00 PM,28.4,21.2,74,29.99,15.0,West,8.1,-,N/A,,Partly Cloudy,270,2013-02-19 22:00:00
7:00 PM,26.6,21.2,80,30.00,15.0,WSW,8.1,-,N/A,,Partly Cloudy,250,2013-02-19 23:00:00
9:00 PM,26.6,21.2,80,30.00,15.0,WSW,6.9,-,N/A,,Scattered Clouds,240,2013-02-20 01:00:00
10:00 PM,26.6,21.2,80,30.00,15.0,West,5.8,-,N/A,,Mostly Cloudy,260,2013-02-20 02:00:00